| time (UTC) | temp F | wind direction | speed knots | gust knots | rain 1hr in | rain 24hr in | rain mn in | humidity % | barometer mb |
| 20260508122003 | 56 | 217 | 1.7 | 7.0 | 0.00 | 0.00 | 0.00 | 69 | 1016.9 |
| 20260508121603 | 56 | 218 | 0.9 | 7.0 | 0.00 | 0.00 | 0.00 | 67 | 1016.9 |
| 20260508121203 | 57 | 218 | 1.7 | 8.7 | 0.00 | 0.00 | 0.00 | 67 | 1016.9 |
| 20260508120803 | 57 | 218 | 1.7 | 8.7 | 0.00 | 0.00 | 0.00 | 65 | 1016.8 |
| 20260508120403 | 58 | 219 | 1.7 | 8.7 | 0.00 | 0.00 | 0.00 | 62 | 1016.8 |
| 20260508120003 | 58 | 220 | 1.7 | 7.0 | 0.00 | 0.00 | 0.00 | 60 | 1016.7 |
| 20260508115603 | 59 | 220 | 0.9 | 6.1 | 0.00 | 0.00 | 0.00 | 62 | 1016.7 |
| 20260508115203 | 59 | 220 | 1.7 | 8.7 | 0.00 | 0.00 | 0.00 | 62 | 1016.6 |
| 20260508114803 | 59 | 221 | 1.7 | 9.6 | 0.00 | 0.00 | 0.00 | 61 | 1016.6 |
| 20260508114403 | 59 | 221 | 2.6 | 12.2 | 0.00 | 0.00 | 0.00 | 61 | 1016.6 |
| 20260508114217 | 60 | 222 | 2.6 | 12.2 | 0.00 | 0.00 | 0.00 | 61 | 1016.6 |
| 20260508113603 | 60 | 223 | 1.7 | 12.2 | 0.00 | 0.00 | 0.00 | 62 | 1016.6 |
| 20260508113203 | 60 | 222 | 1.7 | 7.0 | 0.00 | 0.00 | 0.00 | 60 | 1016.6 |
| 20260508113018 | 60 | 222 | 1.7 | 7.0 | 0.00 | 0.00 | 0.00 | 59 | 1016.6 |
| 20260508112403 | 60 | 220 | 0.9 | 6.1 | 0.00 | 0.00 | 0.00 | 60 | 1016.5 |
| 20260508112003 | 60 | 220 | 0.9 | 6.1 | 0.00 | 0.00 | 0.00 | 60 | 1016.4 |
| 20260508111603 | 60 | 220 | 0.9 | 2.6 | 0.00 | 0.00 | 0.00 | 59 | 1016.4 |
| 20260508111203 | 61 | 220 | 0.9 | 5.2 | 0.00 | 0.00 | 0.00 | 59 | 1016.5 |
| 20260508110803 | 61 | 220 | 1.7 | 5.2 | 0.00 | 0.00 | 0.00 | 58 | 1016.4 |
| 20260508110403 | 62 | 220 | 1.7 | 5.2 | 0.00 | 0.00 | 0.00 | 56 | 1016.4 |
| 20260508110217 | 62 | 220 | 1.7 | 5.2 | 0.00 | 0.00 | 0.00 | 56 | 1016.4 |
| 20260508105603 | 63 | 219 | 1.7 | 8.7 | 0.00 | 0.00 | 0.00 | 57 | 1016.3 |
| 20260508105417 | 63 | 219 | 1.7 | 8.7 | 0.00 | 0.00 | 0.00 | 58 | 1016.3 |
| 20260508105018 | 62 | 219 | 1.7 | 7.8 | 0.00 | 0.00 | 0.00 | 61 | 1016.3 |
| 20260508104403 | 61 | 219 | 1.7 | 7.8 | 0.00 | 0.00 | 0.00 | 61 | 1016.3 |
| 20260508104003 | 60 | 219 | 1.7 | 5.2 | 0.00 | 0.00 | 0.00 | 61 | 1016.3 |
| 20260508103603 | 60 | 219 | 1.7 | 5.2 | 0.00 | 0.00 | 0.00 | 59 | 1016.4 |
| 20260508103203 | 60 | 219 | 1.7 | 6.1 | 0.00 | 0.00 | 0.00 | 59 | 1016.4 |
| 20260508102803 | 60 | 220 | 2.6 | 6.1 | 0.00 | 0.00 | 0.00 | 59 | 1016.4 |
| 20260508102403 | 61 | 224 | 2.6 | 8.7 | 0.00 | 0.00 | 0.00 | 58 | 1016.4 |
| 20260508102003 | 61 | 227 | 2.6 | 8.7 | 0.00 | 0.00 | 0.00 | 58 | 1016.4 |
| 20260508101603 | 61 | 229 | 1.7 | 7.8 | 0.00 | 0.00 | 0.00 | 60 | 1016.4 |
| 20260508101203 | 61 | 230 | 1.7 | 7.0 | 0.00 | 0.00 | 0.00 | 59 | 1016.4 |
| 20260508100803 | 61 | 230 | 0.9 | 7.0 | 0.00 | 0.00 | 0.00 | 60 | 1016.4 |
| 20260508100403 | 60 | 230 | 0.9 | 6.1 | 0.00 | 0.00 | 0.00 | 61 | 1016.4 |
| 20260508100003 | 60 | 230 | 1.7 | 6.1 | 0.00 | 0.00 | 0.00 | 62 | 1016.4 |
| 20260508095603 | 59 | 230 | 1.7 | 7.0 | 0.00 | 0.00 | 0.00 | 62 | 1016.4 |
| 20260508095417 | 59 | 230 | 1.7 | 7.0 | 0.00 | 0.00 | 0.00 | 63 | 1016.4 |
| 20260508094803 | 59 | 229 | 1.7 | 6.1 | 0.00 | 0.00 | 0.00 | 64 | 1016.4 |
| 20260508094403 | 58 | 229 | 1.7 | 6.1 | 0.00 | 0.00 | 0.00 | 64 | 1016.4 |
| 20260508094003 | 58 | 229 | 1.7 | 6.1 | 0.00 | 0.00 | 0.00 | 65 | 1016.4 |
| 20260508093817 | 58 | 230 | 1.7 | 6.1 | 0.00 | 0.00 | 0.00 | 64 | 1016.3 |
| 20260508093203 | 58 | 228 | 1.7 | 7.0 | 0.00 | 0.00 | 0.00 | 65 | 1016.3 |
| 20260508092803 | 59 | 227 | 0.9 | 7.0 | 0.00 | 0.00 | 0.00 | 65 | 1016.3 |
| 20260508092403 | 58 | 227 | 0.9 | 6.1 | 0.00 | 0.00 | 0.00 | 65 | 1016.2 |
| 20260508092218 | 58 | 227 | 0.9 | 6.1 | 0.00 | 0.00 | 0.00 | 66 | 1016.3 |
| 20260508091603 | 57 | 227 | 0.9 | 5.2 | 0.00 | 0.00 | 0.00 | 68 | 1016.3 |
| 20260508091417 | 57 | 227 | 0.9 | 5.2 | 0.00 | 0.00 | 0.00 | 66 | 1016.3 |
| 20260508090803 | 57 | 227 | 0.9 | 3.5 | 0.00 | 0.00 | 0.00 | 67 | 1016.4 |
| 20260508090403 | 56 | 227 | 0.9 | 3.5 | 0.00 | 0.00 | 0.00 | 68 | 1016.4 |
| 20260508090003 | 56 | 227 | 0.0 | 3.5 | 0.00 | 0.00 | 0.00 | 68 | 1016.4 |
| 20260508085603 | 56 | 227 | 0.0 | 4.3 | 0.00 | 0.00 | 0.00 | 70 | 1016.4 |
| 20260508085417 | 55 | 227 | 0.0 | 4.3 | 0.00 | 0.00 | 0.00 | 71 | 1016.4 |
| 20260508084803 | 55 | 227 | 0.0 | 4.3 | 0.00 | 0.00 | 0.00 | 70 | 1016.3 |
| 20260508084403 | 55 | 227 | 0.9 | 4.3 | 0.00 | 0.00 | 0.00 | 70 | 1016.4 |
| 20260508084003 | 55 | 227 | 0.9 | 6.1 | 0.00 | 0.00 | 0.00 | 71 | 1016.4 |
| 20260508083603 | 55 | 227 | 0.9 | 6.1 | 0.00 | 0.00 | 0.00 | 71 | 1016.4 |
| 20260508083203 | 55 | 228 | 0.9 | 6.1 | 0.00 | 0.00 | 0.00 | 70 | 1016.3 |
| 20260508082803 | 55 | 228 | 0.9 | 5.2 | 0.00 | 0.00 | 0.00 | 72 | 1016.3 |
| 20260508082617 | 55 | 228 | 1.7 | 7.0 | 0.00 | 0.00 | 0.00 | 72 | 1016.3 |
| 20260508082003 | 54 | 227 | 1.7 | 7.0 | 0.00 | 0.00 | 0.00 | 71 | 1016.3 |
| 20260508081603 | 54 | 226 | 1.7 | 7.8 | 0.00 | 0.00 | 0.00 | 72 | 1016.3 |
| 20260508081203 | 54 | 226 | 0.9 | 7.8 | 0.00 | 0.00 | 0.00 | 73 | 1016.3 |
| 20260508080803 | 54 | 227 | 1.7 | 7.8 | 0.00 | 0.00 | 0.00 | 72 | 1016.2 |
| 20260508080403 | 54 | 227 | 1.7 | 5.2 | 0.00 | 0.00 | 0.00 | 73 | 1016.2 |
| 20260508080004 | 53 | 227 | 1.7 | 7.8 | 0.00 | 0.00 | 0.00 | 74 | 1016.2 |
| 20260508075818 | 53 | 226 | 2.6 | 7.8 | 0.00 | 0.00 | 0.00 | 74 | 1016.2 |
| 20260508075203 | 53 | 225 | 1.7 | 7.0 | 0.00 | 0.00 | 0.00 | 74 | 1016.2 |
| 20260508074803 | 53 | 225 | 0.9 | 7.0 | 0.00 | 0.00 | 0.00 | 75 | 1016.2 |
| 20260508074403 | 53 | 224 | 0.9 | 7.0 | 0.00 | 0.00 | 0.00 | 75 | 1016.2 |
| 20260508074003 | 53 | 224 | 0.9 | 4.3 | 0.00 | 0.00 | 0.00 | 75 | 1016.2 |
| 20260508073603 | 53 | 224 | 0.9 | 4.3 | 0.00 | 0.00 | 0.00 | 77 | 1016.1 |
| 20260508073203 | 52 | 224 | 0.9 | 3.5 | 0.00 | 0.00 | 0.00 | 77 | 1016.1 |
| 20260508072803 | 52 | 224 | 0.9 | 2.6 | 0.00 | 0.00 | 0.00 | 78 | 1016.1 |
| 20260508072403 | 52 | 224 | 0.9 | 6.1 | 0.00 | 0.00 | 0.00 | 79 | 1016.1 |
| 20260508072003 | 51 | 224 | 0.9 | 6.1 | 0.00 | 0.00 | 0.00 | 80 | 1016.0 |
| 20260508071603 | 51 | 224 | 0.9 | 6.1 | 0.00 | 0.00 | 0.00 | 81 | 1016.1 |
| 20260508071418 | 51 | 224 | 1.7 | 6.1 | 0.00 | 0.00 | 0.00 | 81 | 1016.1 |
| 20260508071018 | 50 | 224 | 1.7 | 6.1 | 0.00 | 0.00 | 0.00 | 81 | 1015.9 |
| 20260508070617 | 50 | 224 | 0.9 | 5.2 | 0.00 | 0.00 | 0.00 | 83 | 1016.0 |
| 20260508070003 | 49 | 224 | 0.9 | 2.6 | 0.00 | 0.00 | 0.00 | 85 | 1015.9 |
| 20260508065603 | 49 | 224 | 0.9 | 4.3 | 0.00 | 0.00 | 0.00 | 87 | 1015.9 |
| 20260508065203 | 48 | 224 | 1.7 | 5.2 | 0.00 | 0.00 | 0.00 | 86 | 1015.8 |
| 20260508064803 | 48 | 224 | 0.9 | 5.2 | 0.00 | 0.00 | 0.00 | 87 | 1015.8 |
| 20260508064403 | 48 | 224 | 0.9 | 3.5 | 0.00 | 0.00 | 0.00 | 87 | 1015.7 |
| 20260508064003 | 48 | 224 | 0.9 | 4.3 | 0.00 | 0.00 | 0.00 | 89 | 1015.7 |
| 20260508063818 | 48 | 224 | 0.9 | 4.3 | 0.00 | 0.00 | 0.00 | 89 | 1015.7 |
| 20260508063203 | 47 | 224 | 0.0 | 4.3 | 0.00 | 0.00 | 0.00 | 90 | 1015.6 |
| 20260508062803 | 46 | 224 | 0.0 | 4.3 | 0.00 | 0.00 | 0.00 | 91 | 1015.6 |
| 20260508062403 | 46 | 224 | 0.0 | 4.3 | 0.00 | 0.00 | 0.00 | 92 | 1015.5 |
| 20260508062217 | 46 | 224 | 0.0 | 4.3 | 0.00 | 0.00 | 0.00 | 92 | 1015.5 |
| 20260508061603 | 46 | 0 | 0.0 | 0.0 | 0.00 | 0.00 | 0.00 | 92 | 1015.4 |
| 20260508061418 | 46 | 0 | 0.0 | 0.0 | 0.00 | 0.00 | 0.00 | 92 | 1015.4 |
| 20260508061018 | 45 | 0 | 0.0 | 0.0 | 0.00 | 0.00 | 0.00 | 92 | 1015.5 |
| 20260508060618 | 45 | 0 | 0.0 | 0.0 | 0.00 | 0.00 | 0.00 | 92 | 1015.5 |
| 20260508060004 | 45 | 0 | 0.0 | 0.0 | 0.00 | 0.00 | 0.00 | 92 | 1015.4 |
| 20260508055603 | 45 | 0 | 0.0 | 0.0 | 0.00 | 0.00 | 0.00 | 92 | 1015.4 |
| 20260508055203 | 45 | 0 | 0.0 | 0.0 | 0.00 | 0.00 | 0.00 | 92 | 1015.4 |
| 20260508054803 | 45 | 0 | 0.0 | 0.0 | 0.00 | 0.00 | 0.00 | 92 | 1015.4 |
| 20260508054403 | 45 | 0 | 0.0 | 0.0 | 0.00 | 0.00 | 0.00 | 92 | 1015.3 |
| 20260508054003 | 45 | 0 | 0.0 | 0.0 | 0.00 | 0.00 | 0.00 | 92 | 1015.3 |
| 20260508053603 | 45 | 0 | 0.0 | 0.0 | 0.00 | 0.00 | 0.00 | 92 | 1015.3 |
| 20260508053203 | 45 | 224 | 0.0 | 0.9 | 0.00 | 0.00 | 0.00 | 92 | 1015.3 |
| 20260508052803 | 45 | 224 | 0.0 | 0.9 | 0.00 | 0.00 | 0.00 | 92 | 1015.3 |
| 20260508052618 | 45 | 224 | 0.0 | 0.9 | 0.00 | 0.00 | 0.00 | 92 | 1015.3 |
| 20260508052003 | 44 | 0 | 0.0 | 0.0 | 0.00 | 0.00 | 0.00 | 91 | 1015.1 |
| 20260508051603 | 44 | 0 | 0.0 | 0.0 | 0.00 | 0.00 | 0.00 | 91 | 1015.1 |
| 20260508051203 | 45 | 0 | 0.0 | 0.0 | 0.00 | 0.00 | 0.00 | 91 | 1015.0 |
| 20260508050803 | 45 | 0 | 0.0 | 0.0 | 0.00 | 0.00 | 0.00 | 91 | 1015.0 |
| 20260508050403 | 45 | 0 | 0.0 | 0.0 | 0.00 | 0.00 | 0.00 | 91 | 1015.0 |
| 20260508050003 | 45 | 0 | 0.0 | 0.0 | 0.00 | 0.00 | 0.00 | 90 | 1014.9 |
| 20260508045603 | 45 | 0 | 0.0 | 0.0 | 0.00 | 0.00 | 0.00 | 91 | 1014.9 |
| 20260508045203 | 45 | 0 | 0.0 | 0.0 | 0.00 | 0.00 | 0.00 | 90 | 1014.9 |
| 20260508044803 | 45 | 0 | 0.0 | 0.0 | 0.00 | 0.00 | 0.00 | 90 | 1014.9 |
| 20260508044403 | 45 | 0 | 0.0 | 0.0 | 0.00 | 0.00 | 0.00 | 90 | 1014.8 |
| 20260508044003 | 45 | 0 | 0.0 | 0.0 | 0.00 | 0.00 | 0.00 | 90 | 1014.9 |
| 20260508043817 | 45 | 0 | 0.0 | 0.0 | 0.00 | 0.00 | 0.00 | 90 | 1014.8 |
| 20260508043203 | 46 | 223 | 0.0 | 0.9 | 0.00 | 0.00 | 0.00 | 90 | 1014.8 |
| 20260508042803 | 46 | 223 | 0.0 | 0.9 | 0.00 | 0.00 | 0.00 | 90 | 1014.8 |
| 20260508042403 | 46 | 223 | 0.0 | 0.9 | 0.00 | 0.00 | 0.00 | 90 | 1014.8 |
| 20260508042003 | 46 | 223 | 0.0 | 0.9 | 0.00 | 0.00 | 0.00 | 90 | 1014.8 |
| 20260508041603 | 46 | 223 | 0.0 | 0.9 | 0.00 | 0.00 | 0.00 | 90 | 1014.8 |
| 20260508041203 | 46 | 223 | 0.0 | 2.6 | 0.00 | 0.00 | 0.00 | 90 | 1014.8 |
| 20260508040803 | 46 | 223 | 0.0 | 2.6 | 0.00 | 0.00 | 0.00 | 90 | 1014.8 |
| 20260508040403 | 46 | 223 | 0.0 | 2.6 | 0.00 | 0.00 | 0.00 | 90 | 1014.8 |
| 20260508040004 | 46 | 223 | 0.0 | 0.9 | 0.00 | 0.00 | 0.00 | 90 | 1014.7 |
| 20260508035603 | 46 | 223 | 0.0 | 0.9 | 0.00 | 0.00 | 0.00 | 90 | 1014.6 |
| 20260508035203 | 46 | 223 | 0.0 | 0.9 | 0.00 | 0.00 | 0.00 | 90 | 1014.6 |
| 20260508034803 | 46 | 223 | 0.0 | 0.9 | 0.00 | 0.00 | 0.00 | 90 | 1014.6 |
| 20260508034617 | 46 | 223 | 0.0 | 0.9 | 0.00 | 0.00 | 0.00 | 90 | 1014.6 |
| 20260508034003 | 46 | 223 | 0.0 | 0.9 | 0.00 | 0.00 | 0.00 | 90 | 1014.6 |
| 20260508033603 | 46 | 223 | 0.0 | 0.9 | 0.00 | 0.00 | 0.00 | 90 | 1014.6 |
| 20260508033203 | 46 | 223 | 0.0 | 0.9 | 0.00 | 0.00 | 0.00 | 90 | 1014.6 |
| 20260508032803 | 46 | 223 | 0.0 | 0.9 | 0.00 | 0.00 | 0.00 | 90 | 1014.6 |
| 20260508032403 | 46 | 223 | 0.0 | 0.9 | 0.00 | 0.00 | 0.00 | 90 | 1014.6 |
| 20260508032003 | 46 | 223 | 0.0 | 0.9 | 0.00 | 0.00 | 0.00 | 90 | 1014.6 |
| 20260508031603 | 46 | 223 | 0.0 | 0.9 | 0.00 | 0.00 | 0.00 | 90 | 1014.6 |
| 20260508031417 | 46 | 223 | 0.0 | 1.7 | 0.00 | 0.00 | 0.00 | 90 | 1014.6 |
| 20260508030803 | 46 | 223 | 0.0 | 1.7 | 0.00 | 0.00 | 0.00 | 90 | 1014.5 |
| 20260508030403 | 46 | 223 | 0.0 | 1.7 | 0.00 | 0.00 | 0.00 | 89 | 1014.6 |
| 20260508030004 | 46 | 0 | 0.0 | 0.0 | 0.00 | 0.00 | 0.00 | 89 | 1014.5 |
| 20260508025603 | 46 | 223 | 0.0 | 0.9 | 0.00 | 0.00 | 0.00 | 89 | 1014.6 |
| 20260508025203 | 46 | 223 | 0.0 | 1.7 | 0.00 | 0.00 | 0.00 | 89 | 1014.5 |
| 20260508024803 | 46 | 223 | 0.0 | 1.7 | 0.00 | 0.00 | 0.00 | 89 | 1014.5 |
| 20260508024403 | 46 | 223 | 0.0 | 2.6 | 0.00 | 0.00 | 0.00 | 88 | 1014.5 |
| 20260508024003 | 46 | 223 | 0.0 | 2.6 | 0.00 | 0.00 | 0.00 | 88 | 1014.6 |
| 20260508023603 | 46 | 223 | 0.0 | 2.6 | 0.00 | 0.00 | 0.00 | 88 | 1014.6 |
| 20260508023203 | 46 | 223 | 0.0 | 1.7 | 0.00 | 0.00 | 0.00 | 88 | 1014.6 |
| 20260508023017 | 46 | 223 | 0.0 | 1.7 | 0.00 | 0.00 | 0.00 | 88 | 1014.6 |
| 20260508022403 | 47 | 223 | 0.0 | 1.7 | 0.00 | 0.00 | 0.00 | 88 | 1014.7 |
| 20260508022003 | 47 | 223 | 0.0 | 0.9 | 0.00 | 0.00 | 0.00 | 87 | 1014.6 |
| 20260508021603 | 47 | 223 | 0.0 | 1.7 | 0.00 | 0.00 | 0.00 | 87 | 1014.6 |
| 20260508021203 | 47 | 223 | 0.0 | 1.7 | 0.00 | 0.00 | 0.00 | 87 | 1014.6 |
| 20260508020803 | 47 | 223 | 0.0 | 1.7 | 0.00 | 0.00 | 0.00 | 86 | 1014.5 |
| 20260508020403 | 47 | 223 | 0.0 | 2.6 | 0.00 | 0.00 | 0.00 | 86 | 1014.6 |
| 20260508020003 | 48 | 223 | 0.0 | 2.6 | 0.00 | 0.00 | 0.00 | 86 | 1014.5 |
| 20260508015603 | 48 | 223 | 0.0 | 3.5 | 0.00 | 0.00 | 0.00 | 86 | 1014.6 |
| 20260508015203 | 48 | 223 | 0.0 | 3.5 | 0.00 | 0.00 | 0.00 | 86 | 1014.6 |
| 20260508014803 | 48 | 223 | 0.0 | 3.5 | 0.00 | 0.00 | 0.00 | 86 | 1014.5 |
| 20260508014403 | 48 | 223 | 0.0 | 3.5 | 0.00 | 0.00 | 0.00 | 86 | 1014.6 |
| 20260508014003 | 48 | 223 | 0.0 | 3.5 | 0.00 | 0.00 | 0.00 | 85 | 1014.5 |
| 20260508013603 | 48 | 223 | 0.9 | 4.3 | 0.00 | 0.00 | 0.00 | 85 | 1014.5 |
| 20260508013203 | 48 | 223 | 0.0 | 4.3 | 0.00 | 0.00 | 0.00 | 85 | 1014.5 |
| 20260508012803 | 48 | 223 | 0.0 | 4.3 | 0.00 | 0.00 | 0.00 | 85 | 1014.6 |
| 20260508012403 | 48 | 223 | 0.0 | 2.6 | 0.00 | 0.00 | 0.00 | 85 | 1014.6 |
| 20260508012003 | 48 | 223 | 0.0 | 5.2 | 0.00 | 0.00 | 0.00 | 84 | 1014.6 |
| 20260508011817 | 48 | 223 | 0.0 | 5.2 | 0.00 | 0.00 | 0.00 | 84 | 1014.6 |
| 20260508011203 | 49 | 223 | 0.0 | 2.6 | 0.00 | 0.00 | 0.00 | 84 | 1014.6 |
| 20260508011018 | 49 | 223 | 0.0 | 1.7 | 0.00 | 0.00 | 0.00 | 84 | 1014.5 |
| 20260508010403 | 49 | 223 | 0.0 | 6.1 | 0.00 | 0.00 | 0.00 | 84 | 1014.6 |
| 20260508010003 | 49 | 223 | 0.0 | 6.1 | 0.00 | 0.00 | 0.00 | 84 | 1014.6 |
| 20260508005603 | 49 | 223 | 0.0 | 6.1 | 0.00 | 0.00 | 0.00 | 83 | 1014.6 |
| 20260508005203 | 49 | 223 | 0.9 | 4.3 | 0.00 | 0.00 | 0.00 | 83 | 1014.7 |
| 20260508004803 | 49 | 223 | 0.9 | 4.3 | 0.00 | 0.00 | 0.00 | 83 | 1014.7 |
| 20260508004403 | 49 | 223 | 0.9 | 5.2 | 0.00 | 0.00 | 0.00 | 83 | 1014.8 |
| 20260508004003 | 49 | 223 | 0.9 | 5.2 | 0.00 | 0.00 | 0.00 | 83 | 1014.8 |
| 20260508003603 | 49 | 223 | 0.9 | 4.3 | 0.00 | 0.00 | 0.00 | 83 | 1014.8 |
| 20260508003418 | 49 | 223 | 0.0 | 4.3 | 0.00 | 0.00 | 0.00 | 82 | 1014.9 |
| 20260508002803 | 50 | 223 | 0.9 | 3.5 | 0.00 | 0.00 | 0.00 | 82 | 1014.8 |
| 20260508002403 | 50 | 223 | 0.9 | 3.5 | 0.00 | 0.00 | 0.00 | 82 | 1014.8 |
| 20260508002003 | 50 | 223 | 0.9 | 5.2 | 0.00 | 0.00 | 0.00 | 81 | 1014.8 |
| 20260508001603 | 50 | 223 | 1.7 | 6.1 | 0.00 | 0.00 | 0.00 | 81 | 1014.8 |
| 20260508001203 | 50 | 223 | 1.7 | 6.1 | 0.00 | 0.00 | 0.00 | 80 | 1014.9 |
| 20260508000803 | 50 | 223 | 1.7 | 6.1 | 0.00 | 0.00 | 0.00 | 80 | 1014.9 |
| 20260508000405 | 50 | 223 | 0.9 | 6.1 | 0.00 | 0.00 | 0.00 | 80 | 1014.9 |
| 20260508000004 | 50 | 223 | 0.9 | 5.2 | 0.00 | 0.00 | 0.00 | 79 | 1014.9 |
| 20260507235605 | 50 | 223 | 0.9 | 5.2 | 0.00 | 0.00 | 0.00 | 79 | 1014.9 |
| 20260507235203 | 50 | 223 | 0.9 | 4.3 | 0.00 | 0.00 | 0.00 | 78 | 1014.9 |
| 20260507234803 | 51 | 223 | 0.9 | 4.3 | 0.00 | 0.00 | 0.00 | 78 | 1014.8 |
| 20260507234403 | 51 | 223 | 0.9 | 4.3 | 0.00 | 0.00 | 0.00 | 77 | 1014.7 |
| 20260507234003 | 51 | 223 | 0.9 | 6.1 | 0.00 | 0.00 | 0.00 | 77 | 1014.7 |
| 20260507233817 | 51 | 223 | 0.9 | 6.1 | 0.00 | 0.00 | 0.00 | 77 | 1014.7 |
| 20260507233203 | 51 | 223 | 0.9 | 6.1 | 0.00 | 0.00 | 0.00 | 76 | 1014.6 |
| 20260507233017 | 51 | 223 | 0.9 | 6.1 | 0.00 | 0.00 | 0.00 | 76 | 1014.6 |
| 20260507232403 | 51 | 223 | 1.7 | 5.2 | 0.00 | 0.00 | 0.00 | 76 | 1014.6 |
| 20260507232003 | 51 | 223 | 1.7 | 8.7 | 0.00 | 0.00 | 0.00 | 76 | 1014.6 |
| 20260507231603 | 51 | 222 | 1.7 | 8.7 | 0.00 | 0.00 | 0.00 | 75 | 1014.6 |
| 20260507231203 | 51 | 221 | 1.7 | 8.7 | 0.00 | 0.00 | 0.00 | 75 | 1014.5 |
| 20260507230803 | 51 | 221 | 1.7 | 8.7 | 0.00 | 0.00 | 0.00 | 75 | 1014.5 |
| 20260507230403 | 51 | 221 | 0.9 | 8.7 | 0.00 | 0.00 | 0.00 | 75 | 1014.5 |
| 20260507230218 | 51 | 221 | 0.9 | 6.1 | 0.00 | 0.00 | 0.00 | 76 | 1014.6 |
| 20260507225603 | 51 | 221 | 0.9 | 6.1 | 0.00 | 0.00 | 0.00 | 76 | 1014.6 |
| 20260507225203 | 51 | 221 | 0.9 | 5.2 | 0.00 | 0.00 | 0.00 | 76 | 1014.7 |
| 20260507225017 | 51 | 221 | 0.9 | 5.2 | 0.00 | 0.00 | 0.00 | 76 | 1014.6 |
| 20260507224618 | 51 | 221 | 0.9 | 4.3 | 0.00 | 0.00 | 0.00 | 76 | 1014.6 |
| 20260507224003 | 51 | 221 | 0.9 | 4.3 | 0.00 | 0.00 | 0.00 | 76 | 1014.6 |
| 20260507223603 | 51 | 221 | 0.9 | 4.3 | 0.00 | 0.00 | 0.00 | 77 | 1014.6 |
| 20260507223203 | 51 | 221 | 0.9 | 4.3 | 0.00 | 0.00 | 0.00 | 77 | 1014.6 |
| 20260507222803 | 51 | 221 | 0.0 | 2.6 | 0.00 | 0.00 | 0.00 | 77 | 1014.6 |
| 20260507222403 | 51 | 221 | 0.9 | 3.5 | 0.00 | 0.00 | 0.00 | 77 | 1014.6 |
| 20260507222003 | 51 | 221 | 0.9 | 3.5 | 0.00 | 0.00 | 0.00 | 77 | 1014.6 |
| 20260507221603 | 51 | 221 | 0.0 | 3.5 | 0.00 | 0.00 | 0.00 | 77 | 1014.6 |
| 20260507221203 | 51 | 221 | 0.9 | 1.7 | 0.00 | 0.00 | 0.00 | 77 | 1014.6 |
| 20260507220803 | 51 | 221 | 0.9 | 6.1 | 0.00 | 0.00 | 0.00 | 77 | 1014.7 |
| 20260507220617 | 51 | 221 | 0.9 | 6.1 | 0.00 | 0.00 | 0.00 | 77 | 1014.6 |
| 20260507220003 | 51 | 221 | 0.9 | 5.2 | 0.00 | 0.00 | 0.00 | 77 | 1014.6 |
| 20260507215818 | 51 | 221 | 0.9 | 5.2 | 0.00 | 0.00 | 0.00 | 77 | 1014.6 |
| 20260507215203 | 51 | 221 | 0.9 | 5.2 | 0.00 | 0.00 | 0.00 | 76 | 1014.7 |
| 20260507214803 | 51 | 221 | 0.9 | 4.3 | 0.00 | 0.00 | 0.00 | 76 | 1014.8 |
| 20260507214403 | 51 | 221 | 0.9 | 4.3 | 0.00 | 0.00 | 0.00 | 76 | 1014.8 |
| 20260507214218 | 51 | 221 | 0.9 | 4.3 | 0.00 | 0.00 | 0.00 | 76 | 1014.7 |
| 20260507213603 | 51 | 221 | 0.0 | 2.6 | 0.00 | 0.00 | 0.00 | 75 | 1014.7 |
| 20260507213203 | 51 | 221 | 0.0 | 2.6 | 0.00 | 0.00 | 0.00 | 75 | 1014.7 |
| 20260507212803 | 51 | 221 | 0.9 | 4.3 | 0.00 | 0.00 | 0.00 | 74 | 1014.7 |
| 20260507212403 | 51 | 221 | 0.0 | 4.3 | 0.00 | 0.00 | 0.00 | 74 | 1014.7 |
| 20260507212003 | 51 | 221 | 0.0 | 1.7 | 0.00 | 0.00 | 0.00 | 74 | 1014.6 |
| 20260507211818 | 51 | 221 | 0.0 | 2.6 | 0.00 | 0.00 | 0.00 | 74 | 1014.6 |
| 20260507211203 | 51 | 221 | 0.0 | 5.2 | 0.00 | 0.00 | 0.00 | 73 | 1014.6 |
| 20260507210803 | 52 | 221 | 0.9 | 5.2 | 0.00 | 0.00 | 0.00 | 73 | 1014.6 |
| 20260507210403 | 52 | 221 | 0.9 | 5.2 | 0.00 | 0.00 | 0.00 | 73 | 1014.5 |
| 20260507210003 | 52 | 221 | 0.9 | 5.2 | 0.00 | 0.00 | 0.00 | 73 | 1014.5 |
| 20260507205603 | 52 | 221 | 0.9 | 5.2 | 0.00 | 0.00 | 0.00 | 72 | 1014.5 |
| 20260507205203 | 52 | 221 | 0.0 | 5.2 | 0.00 | 0.00 | 0.00 | 72 | 1014.4 |
| 20260507204803 | 52 | 221 | 0.0 | 5.2 | 0.00 | 0.00 | 0.00 | 72 | 1014.3 |
| 20260507204617 | 52 | 221 | 0.0 | 1.7 | 0.00 | 0.00 | 0.00 | 72 | 1014.3 |
| 20260507204003 | 52 | 221 | 0.0 | 2.6 | 0.00 | 0.00 | 0.00 | 72 | 1014.3 |
| 20260507203818 | 52 | 221 | 0.0 | 2.6 | 0.00 | 0.00 | 0.00 | 71 | 1014.3 |
| 20260507203203 | 52 | 221 | 0.0 | 2.6 | 0.00 | 0.00 | 0.00 | 71 | 1014.3 |
| 20260507202803 | 52 | 221 | 0.0 | 2.6 | 0.00 | 0.00 | 0.00 | 71 | 1014.2 |
| 20260507202403 | 52 | 221 | 0.0 | 2.6 | 0.00 | 0.00 | 0.00 | 71 | 1014.3 |
| 20260507202003 | 52 | 221 | 0.9 | 5.2 | 0.00 | 0.00 | 0.00 | 71 | 1014.2 |
| 20260507201603 | 52 | 221 | 0.9 | 5.2 | 0.00 | 0.00 | 0.00 | 71 | 1014.3 |
| 20260507201203 | 52 | 221 | 0.0 | 2.6 | 0.00 | 0.00 | 0.00 | 71 | 1014.2 |
| 20260507200803 | 52 | 221 | 0.0 | 2.6 | 0.00 | 0.00 | 0.00 | 71 | 1014.2 |
| 20260507200403 | 52 | 221 | 0.0 | 2.6 | 0.00 | 0.00 | 0.00 | 71 | 1014.1 |
| 20260507200003 | 52 | 221 | 0.0 | 4.3 | 0.00 | 0.00 | 0.00 | 71 | 1014.2 |
| 20260507195817 | 52 | 221 | 0.0 | 4.3 | 0.00 | 0.00 | 0.00 | 71 | 1014.1 |
| 20260507195418 | 52 | 221 | 0.0 | 4.3 | 0.00 | 0.00 | 0.00 | 71 | 1014.1 |
| 20260507194803 | 52 | 221 | 0.0 | 2.6 | 0.00 | 0.00 | 0.00 | 71 | 1014.1 |
| 20260507194403 | 52 | 221 | 0.0 | 2.6 | 0.00 | 0.00 | 0.00 | 72 | 1014.1 |
| 20260507194217 | 53 | 221 | 0.0 | 2.6 | 0.00 | 0.00 | 0.00 | 71 | 1014.1 |
| 20260507193603 | 53 | 221 | 0.0 | 1.7 | 0.00 | 0.00 | 0.00 | 71 | 1014.1 |
| 20260507193203 | 53 | 221 | 0.0 | 1.7 | 0.00 | 0.00 | 0.00 | 71 | 1014.0 |
| 20260507192803 | 53 | 221 | 0.0 | 1.7 | 0.00 | 0.00 | 0.00 | 71 | 1014.0 |
| 20260507192403 | 53 | 221 | 0.0 | 0.9 | 0.00 | 0.00 | 0.00 | 72 | 1014.0 |
| 20260507192003 | 53 | 221 | 0.0 | 3.5 | 0.00 | 0.00 | 0.00 | 71 | 1014.0 |
| 20260507191603 | 53 | 221 | 0.0 | 3.5 | 0.00 | 0.00 | 0.00 | 71 | 1014.0 |
| 20260507191203 | 53 | 221 | 0.0 | 1.7 | 0.00 | 0.00 | 0.00 | 71 | 1013.9 |
| 20260507190803 | 53 | 221 | 0.0 | 1.7 | 0.00 | 0.00 | 0.00 | 71 | 1013.9 |
| 20260507190403 | 53 | 221 | 0.0 | 1.7 | 0.00 | 0.00 | 0.00 | 71 | 1013.9 |
| 20260507190004 | 53 | 221 | 0.0 | 1.7 | 0.00 | 0.00 | 0.00 | 71 | 1013.9 |
| 20260507185603 | 53 | 221 | 0.0 | 4.3 | 0.00 | 0.00 | 0.00 | 71 | 1013.9 |
| 20260507185203 | 53 | 221 | 0.0 | 4.3 | 0.00 | 0.00 | 0.00 | 71 | 1013.8 |
| 20260507184803 | 53 | 221 | 0.0 | 2.6 | 0.00 | 0.00 | 0.00 | 71 | 1013.9 |
| 20260507184618 | 53 | 221 | 0.0 | 2.6 | 0.00 | 0.00 | 0.00 | 71 | 1013.8 |
| 20260507184003 | 54 | 221 | 0.0 | 1.7 | 0.00 | 0.00 | 0.00 | 71 | 1013.9 |
| 20260507183603 | 54 | 221 | 0.0 | 1.7 | 0.00 | 0.00 | 0.00 | 71 | 1013.9 |
| 20260507183417 | 54 | 221 | 0.0 | 1.7 | 0.00 | 0.00 | 0.00 | 70 | 1013.9 |
| 20260507182803 | 54 | 221 | 0.0 | 6.1 | 0.00 | 0.00 | 0.00 | 70 | 1013.9 |
| 20260507182618 | 54 | 221 | 0.0 | 6.1 | 0.00 | 0.00 | 0.00 | 70 | 1013.9 |
| 20260507182003 | 54 | 221 | 0.9 | 7.0 | 0.00 | 0.00 | 0.00 | 70 | 1013.9 |
| 20260507181603 | 54 | 221 | 0.0 | 7.0 | 0.00 | 0.00 | 0.00 | 70 | 1013.8 |
| 20260507181203 | 54 | 221 | 0.9 | 7.0 | 0.00 | 0.00 | 0.00 | 70 | 1013.8 |
| 20260507180803 | 54 | 221 | 0.9 | 5.2 | 0.00 | 0.00 | 0.00 | 70 | 1013.8 |
| 20260507180403 | 54 | 221 | 0.9 | 5.2 | 0.00 | 0.00 | 0.00 | 70 | 1013.8 |
| 20260507180004 | 54 | 221 | 0.0 | 3.5 | 0.00 | 0.00 | 0.00 | 69 | 1013.8 |
| 20260507175603 | 54 | 221 | 0.9 | 6.1 | 0.00 | 0.00 | 0.00 | 70 | 1013.8 |
| 20260507175417 | 54 | 222 | 0.9 | 6.1 | 0.00 | 0.00 | 0.00 | 69 | 1013.8 |
| 20260507174803 | 54 | 223 | 1.7 | 6.1 | 0.00 | 0.00 | 0.00 | 68 | 1013.8 |
| 20260507174403 | 55 | 223 | 1.7 | 7.8 | 0.00 | 0.00 | 0.00 | 68 | 1013.8 |
| 20260507174003 | 55 | 223 | 1.7 | 7.8 | 0.00 | 0.00 | 0.00 | 68 | 1013.8 |
| 20260507173603 | 55 | 223 | 0.9 | 7.8 | 0.00 | 0.00 | 0.00 | 68 | 1013.8 |
| 20260507173203 | 54 | 223 | 0.9 | 5.2 | 0.00 | 0.00 | 0.00 | 69 | 1013.8 |
| 20260507172803 | 54 | 223 | 0.9 | 6.1 | 0.00 | 0.00 | 0.00 | 69 | 1013.8 |
| 20260507172618 | 54 | 223 | 1.7 | 6.1 | 0.00 | 0.00 | 0.00 | 68 | 1013.8 |
| 20260507172003 | 54 | 223 | 1.7 | 6.1 | 0.00 | 0.00 | 0.00 | 68 | 1013.9 |
| 20260507171603 | 54 | 223 | 1.7 | 7.0 | 0.00 | 0.00 | 0.00 | 68 | 1013.8 |
| 20260507171203 | 54 | 223 | 2.6 | 7.8 | 0.00 | 0.00 | 0.00 | 68 | 1013.9 |
| 20260507170803 | 54 | 223 | 1.7 | 7.8 | 0.00 | 0.00 | 0.00 | 68 | 1014.0 |
| 20260507170617 | 54 | 223 | 1.7 | 7.8 | 0.00 | 0.00 | 0.00 | 68 | 1014.0 |
| 20260507170003 | 54 | 223 | 0.9 | 7.0 | 0.00 | 0.00 | 0.00 | 67 | 1014.0 |
| 20260507165818 | 54 | 223 | 0.9 | 7.0 | 0.00 | 0.00 | 0.00 | 68 | 1014.0 |
| 20260507165203 | 54 | 223 | 0.9 | 7.0 | 0.00 | 0.00 | 0.00 | 69 | 1014.1 |
| 20260507164803 | 54 | 223 | 0.9 | 6.1 | 0.00 | 0.00 | 0.00 | 68 | 1014.1 |
| 20260507164403 | 54 | 223 | 0.9 | 6.1 | 0.00 | 0.00 | 0.00 | 69 | 1014.1 |
| 20260507164003 | 54 | 223 | 1.7 | 7.0 | 0.00 | 0.00 | 0.00 | 68 | 1014.2 |
| 20260507163603 | 54 | 223 | 1.7 | 7.0 | 0.00 | 0.00 | 0.00 | 69 | 1014.1 |
| 20260507163203 | 54 | 223 | 1.7 | 6.1 | 0.00 | 0.00 | 0.00 | 69 | 1014.2 |
| 20260507162803 | 53 | 223 | 1.7 | 6.1 | 0.00 | 0.00 | 0.00 | 69 | 1014.2 |
| 20260507162403 | 53 | 223 | 1.7 | 6.1 | 0.00 | 0.00 | 0.00 | 69 | 1014.2 |
| 20260507162003 | 53 | 223 | 1.7 | 7.0 | 0.00 | 0.00 | 0.00 | 70 | 1014.2 |
| 20260507161603 | 53 | 224 | 1.7 | 7.0 | 0.00 | 0.00 | 0.00 | 69 | 1014.2 |
| 20260507161419 | 53 | 224 | 1.7 | 7.0 | 0.00 | 0.00 | 0.00 | 70 | 1014.2 |
| 20260507160803 | 53 | 224 | 1.7 | 7.0 | 0.00 | 0.00 | 0.00 | 70 | 1014.2 |
| 20260507160403 | 53 | 224 | 1.7 | 7.0 | 0.00 | 0.00 | 0.00 | 70 | 1014.3 |
| 20260507160003 | 53 | 224 | 1.7 | 7.0 | 0.00 | 0.00 | 0.00 | 70 | 1014.3 |
| 20260507155603 | 53 | 225 | 1.7 | 7.0 | 0.00 | 0.00 | 0.00 | 69 | 1014.3 |
| 20260507155203 | 53 | 225 | 1.7 | 6.1 | 0.00 | 0.00 | 0.00 | 70 | 1014.3 |
| 20260507154803 | 53 | 225 | 1.7 | 7.0 | 0.00 | 0.00 | 0.00 | 70 | 1014.3 |
| 20260507154617 | 53 | 225 | 1.7 | 7.0 | 0.00 | 0.00 | 0.00 | 70 | 1014.3 |
| 20260507154003 | 53 | 225 | 1.7 | 6.1 | 0.00 | 0.00 | 0.00 | 69 | 1014.3 |
| 20260507153603 | 53 | 225 | 0.9 | 6.1 | 0.00 | 0.00 | 0.00 | 69 | 1014.3 |
| 20260507153203 | 53 | 225 | 0.9 | 6.1 | 0.00 | 0.00 | 0.00 | 69 | 1014.3 |
| 20260507152803 | 53 | 225 | 0.9 | 4.3 | 0.00 | 0.00 | 0.00 | 69 | 1014.3 |
| 20260507152403 | 53 | 225 | 0.9 | 5.2 | 0.00 | 0.00 | 0.00 | 68 | 1014.4 |
| 20260507152217 | 53 | 225 | 0.9 | 5.2 | 0.00 | 0.00 | 0.00 | 68 | 1014.4 |
| 20260507151603 | 53 | 223 | 0.9 | 7.8 | 0.00 | 0.00 | 0.00 | 67 | 1014.4 |
| 20260507151418 | 53 | 222 | 0.9 | 7.8 | 0.00 | 0.00 | 0.00 | 67 | 1014.4 |
| 20260507150803 | 54 | 219 | 0.9 | 7.8 | 0.00 | 0.00 | 0.00 | 67 | 1014.5 |
| 20260507150403 | 54 | 219 | 1.7 | 5.2 | 0.00 | 0.00 | 0.00 | 67 | 1014.4 |
| 20260507150004 | 54 | 219 | 1.7 | 6.1 | 0.00 | 0.00 | 0.00 | 67 | 1014.4 |
| 20260507145603 | 54 | 219 | 2.6 | 10.4 | 0.00 | 0.00 | 0.00 | 67 | 1014.4 |
| 20260507145203 | 54 | 218 | 2.6 | 10.4 | 0.00 | 0.00 | 0.00 | 67 | 1014.4 |
| 20260507144803 | 54 | 218 | 3.5 | 11.3 | 0.00 | 0.00 | 0.00 | 66 | 1014.3 |
| 20260507144403 | 54 | 218 | 3.5 | 11.3 | 0.00 | 0.00 | 0.00 | 67 | 1014.4 |
| 20260507144003 | 54 | 219 | 2.6 | 11.3 | 0.00 | 0.00 | 0.00 | 65 | 1014.4 |
| 20260507143603 | 54 | 220 | 2.6 | 11.3 | 0.00 | 0.00 | 0.00 | 65 | 1014.4 |
| 20260507143203 | 54 | 221 | 2.6 | 8.7 | 0.00 | 0.00 | 0.00 | 67 | 1014.5 |
| 20260507142803 | 54 | 220 | 1.7 | 10.4 | 0.00 | 0.00 | 0.00 | 65 | 1014.4 |
| 20260507142403 | 54 | 219 | 2.6 | 10.4 | 0.00 | 0.00 | 0.00 | 66 | 1014.5 |
| 20260507142003 | 54 | 219 | 2.6 | 8.7 | 0.00 | 0.00 | 0.00 | 65 | 1014.5 |
| 20260507141603 | 54 | 219 | 3.5 | 11.3 | 0.00 | 0.00 | 0.00 | 65 | 1014.5 |
| 20260507141203 | 54 | 220 | 2.6 | 11.3 | 0.00 | 0.00 | 0.00 | 65 | 1014.6 |
| 20260507141018 | 55 | 220 | 2.6 | 11.3 | 0.00 | 0.00 | 0.00 | 65 | 1014.5 |
| 20260507140403 | 55 | 221 | 2.6 | 10.4 | 0.00 | 0.00 | 0.00 | 66 | 1014.5 |
| 20260507140003 | 55 | 220 | 3.5 | 16.5 | 0.00 | 0.00 | 0.00 | 67 | 1014.5 |
| 20260507135817 | 55 | 218 | 3.5 | 16.5 | 0.00 | 0.00 | 0.00 | 67 | 1014.5 |
| 20260507135203 | 55 | 210 | 2.6 | 15.6 | 0.00 | 0.00 | 0.00 | 66 | 1014.5 |
| 20260507135018 | 55 | 209 | 2.6 | 9.6 | 0.00 | 0.00 | 0.00 | 67 | 1014.5 |
| 20260507134618 | 55 | 209 | 2.6 | 9.6 | 0.00 | 0.00 | 0.00 | 68 | 1014.5 |
| 20260507134003 | 55 | 208 | 3.5 | 11.3 | 0.00 | 0.00 | 0.00 | 68 | 1014.5 |
| 20260507133603 | 55 | 209 | 3.5 | 11.3 | 0.00 | 0.00 | 0.00 | 67 | 1014.5 |
| 20260507133203 | 55 | 210 | 2.6 | 9.6 | 0.00 | 0.00 | 0.00 | 67 | 1014.4 |
| 20260507133018 | 55 | 210 | 2.6 | 9.6 | 0.00 | 0.00 | 0.00 | 68 | 1014.5 |
| 20260507132403 | 54 | 210 | 1.7 | 9.6 | 0.00 | 0.00 | 0.00 | 69 | 1014.5 |
| 20260507132003 | 54 | 209 | 1.7 | 11.3 | 0.00 | 0.00 | 0.00 | 70 | 1014.4 |
| 20260507131817 | 54 | 209 | 2.6 | 11.3 | 0.00 | 0.00 | 0.00 | 69 | 1014.4 |
| 20260507131203 | 54 | 206 | 2.6 | 11.3 | 0.00 | 0.00 | 0.00 | 68 | 1014.6 |
| 20260507130803 | 54 | 204 | 1.7 | 9.6 | 0.00 | 0.00 | 0.00 | 67 | 1014.6 |
| 20260507130618 | 55 | 204 | 1.7 | 8.7 | 0.00 | 0.00 | 0.00 | 67 | 1014.6 |
| 20260507130003 | 55 | 203 | 1.7 | 6.1 | 0.00 | 0.00 | 0.00 | 67 | 1014.5 |
| 20260507125817 | 55 | 204 | 1.7 | 7.0 | 0.00 | 0.00 | 0.00 | 67 | 1014.5 |
| 20260507125203 | 55 | 207 | 1.7 | 7.0 | 0.00 | 0.00 | 0.00 | 66 | 1014.6 |
| 20260507124803 | 55 | 208 | 1.7 | 6.1 | 0.00 | 0.00 | 0.00 | 66 | 1014.6 |
| 20260507124403 | 55 | 209 | 2.6 | 13.9 | 0.00 | 0.00 | 0.00 | 67 | 1014.6 |
| 20260507124003 | 55 | 210 | 2.6 | 13.9 | 0.00 | 0.00 | 0.00 | 66 | 1014.6 |
| 20260507123603 | 55 | 212 | 1.7 | 13.9 | 0.00 | 0.00 | 0.00 | 65 | 1014.6 |
| 20260507123203 | 55 | 212 | 2.6 | 7.0 | 0.00 | 0.00 | 0.00 | 66 | 1014.5 |
| 20260507122803 | 55 | 212 | 2.6 | 7.0 | 0.00 | 0.00 | 0.00 | 66 | 1014.6 |
| 20260507122403 | 55 | 212 | 1.7 | 6.1 | 0.00 | 0.00 | 0.00 | 65 | 1014.5 |